sat.trackr.live / text

‹ back to catalog

STARLINK-31838

NORAD 60130 · 2024-118T

PAYLOAD ACTIVE UNKNOWN

§ Identity

Operator
Country
US
Launch date
2024-06-24
Launch site
AFWTR
Launch vehicle
Mass (kg)
RCS (m²)

Purposes: comms

External: N2YO · Heavens-Above · Gunter

§ Orbital elements

Epoch: 2026-05-25T00:08:37.854816Z

Period
94.01 min
Inclination
53.1603°
Eccentricity
0.0001094
Mean motion
15.31700999 rev/d
Perigee alt
470.0 km
Apogee alt
471.5 km
Semi-major
6,848.9 km
B*
2.3052e-5
RAAN
32.0341°
Arg perigee
96.2411°
Mean anomaly
263.8715°
Rev number
10,738

§ Raw data

STARLINK-318381 60130U 24118T   26145.00599369  .00000350  00000+0  23052-4 0  99982 60130  53.1603  32.0341 0001094  96.2411 263.8715 15.31700999107385

JSON: /api/v1/satellites/60130 · /tle

For live sub-satellite position, see the globe view (requires WebGL).

§ Visibility from observer

Set your observer location to see the next 7 days of passes ≥ 10°. The values pass through the URL so the page stays shareable.

No JS? Fill the form by hand. The geolocation button needs JavaScript.